This is the latest recevied weather packets stored in our database for station/object N0QV. If no packets are shown the sender has not sent any weather packets the latest 1 day(s).
| Time | Temp. | Humidity | Pressure | Rain* | Wind** | Luminosity | Snow |
|---|---|---|---|---|---|---|---|
| 1778026949 | 10° C | 37% | 1011.9 hPa | 0 mm | 0.89 m/s, 286° | 31 W/m² | - |
| 1778026645 | 10° C | 36% | 1011.5 hPa | 0 mm | 2.24 m/s, 252° | 43 W/m² | - |
| 1778026343 | 10° C | 35% | 1011.6 hPa | 0 mm | 0.45 m/s, 294° | 54 W/m² | - |
| 1778026040 | 10° C | 34% | 1011.5 hPa | 0 mm | 2.24 m/s, 256° | 55 W/m² | - |
| 1778025737 | 10.56° C | 35% | 1011.6 hPa | 0 mm | 0.45 m/s, 294° | 44 W/m² | - |
| 1778025434 | 10.56° C | 34% | 1011.6 hPa | 0 mm | 1.34 m/s, 258° | 47 W/m² | - |
| 1778025132 | 10.56° C | 35% | 1011.4 hPa | 0 mm | 1.34 m/s, 249° | 58 W/m² | - |
| 1778024829 | 10.56° C | 35% | 1011.3 hPa | 0 mm | 0.45 m/s, 272° | 63 W/m² | - |
| 1778024526 | 10.56° C | 34% | 1011.6 hPa | 0 mm | 2.24 m/s, 221° | 70 W/m² | - |
| 1778024222 | 10.56° C | 34% | 1011.5 hPa | 0 mm | 1.79 m/s, 277° | 69 W/m² | - |
| 1778023920 | 10.56° C | 34% | 1011.4 hPa | 0 mm | 1.34 m/s, 271° | 67 W/m² | - |
| 1778023618 | 10.56° C | 34% | 1011.3 hPa | 0 mm | 1.34 m/s, 260° | 67 W/m² | - |
| 1778023315 | 10.56° C | 34% | 1011.5 hPa | 0 mm | 3.13 m/s, 305° | 71 W/m² | - |
| 1778023011 | 10.56° C | 35% | 1011.1 hPa | 0 mm | 1.79 m/s, 268° | 85 W/m² | - |
| 1778022710 | 10.56° C | 36% | 1011.2 hPa | 0 mm | 0.45 m/s, 274° | 71 W/m² | - |
| 1778022408 | 10.56° C | 35% | 1011.2 hPa | 0 mm | 1.79 m/s, 257° | 80 W/m² | - |
| 1778022105 | 10.56° C | 34% | 1011.2 hPa | 0 mm | 1.79 m/s, 319° | 95 W/m² | - |
| 1778021800 | 10.56° C | 36% | 1011.2 hPa | 0 mm | 0.45 m/s, 275° | 77 W/m² | - |
| 1778021497 | 11.11° C | 35% | 1011.2 hPa | 0 mm | 0.45 m/s, 268° | 71 W/m² | - |
| 1778021193 | 11.11° C | 34% | 1011.3 hPa | 0 mm | 2.24 m/s, 251° | 105 W/m² | - |
| 1778020892 | 11.11° C | 34% | 1011.1 hPa | 0 mm | 1.34 m/s, 259° | 139 W/m² | - |
| 1778020588 | 11.67° C | 34% | 1011.2 hPa | 0 mm | 1.79 m/s, 262° | 150 W/m² | - |
| 1778020284 | 11.67° C | 33% | 1011.1 hPa | 0 mm | 0.45 m/s, 261° | 343 W/m² | - |
| 1778019981 | 11.67° C | 34% | 1011 hPa | 0 mm | 1.34 m/s, 252° | 140 W/m² | - |
| 1778019677 | 12.22° C | 33% | 1011.1 hPa | 0 mm | 1.79 m/s, 308° | 192 W/m² | - |
* Rain latest hour (hover to see other rain measurements)
** Current wind speed in m/s (hover to see current wind gust speed)